Miscellaneous Local Product
Issued by NWS Hastings, NE

Home | Current Version | Previous Version | Text Only | Print | Product List | Glossary On
Versions: 1 2 3 4 5 6 7 8 9 10 11 12 13 14 15 16 17 18 19 20 21 22 23 24 25 26 27 28 29 30 31 32 33 34 35 36 37 38 39 40 41 42 43 44 45 46 47 48 49 50
000
AXUS43 KGID 211302
MISGRI

GID CWA HOURLY WEATHER ROUNDUP
NATIONAL WEATHER SERVICE HASTINGS NE
800 AM CDT THU AUG 21 2014

NOTE: "FAIR" INDICATES FEW OR NO CLOUDS BELOW 12,000 FEET WITH NO
SIGNIFICANT WEATHER AND/OR OBSTRUCTIONS TO VISIBILITY.

...SOUTH CENTRAL NEBRASKA...

CITY           SKY/WX    TMP DP  RH WIND       PRES   REMARKS
GRAND ISLAND   MOSUNNY   72  67  84 S10       29.82R
HASTINGS       CLOUDY    73  64  73 S12       29.83R
KEARNEY        PTSUNNY   70  66  88 SE5       29.84R
ORD            SUNNY     70  65  84 CALM      29.83S
YORK           CLOUDY    72 N/A N/A S14       29.82S
AURORA         LGT RAIN  73  70  89 S10       29.82S
LEXINGTON      SUNNY     68  64  88 NE6       29.84S
HOLDREGE       MOSUNNY   69  65  88 NW7       29.85R
HEBRON         CLOUDY    72  66  83 E3        29.86R

...NEBRASKA PANHANDLE...

CITY           SKY/WX    TMP DP  RH WIND       PRES   REMARKS
CHADRON        CLEAR     58  53  84 NW5       29.96R
ALLIANCE       CLEAR     62  54  74 N8        29.96R
SCOTTSBLUFF    CLEAR     59  51  75 N7        29.99R
SIDNEY         CLEAR     63  50  62 W12       30.01R

...WESTERN AND NORTH CENTRAL NEBRASKA...

CITY           SKY/WX    TMP DP  RH WIND       PRES   REMARKS
VALENTINE      CLOUDY    66  62  87 W8        29.90R
AINSWORTH      CLOUDY    67  62  83 W7        29.88R
ONEILL         MOSUNNY   72  65  79 SW6       29.83R
BROKEN BOW     MOSUNNY   70  64  81 CALM      29.85F
IMPERIAL       PTCLDY    69  59  70 N9        29.90S
NORTH PLATTE   PTSUNNY   70  63  78 CALM      29.86S
MCCOOK         MOSUNNY   73  60  63 N9        29.86R

...EASTERN NEBRASKA...

CITY           SKY/WX    TMP DP  RH WIND       PRES   REMARKS
NORFOLK        MOSUNNY   74  63  68 SW13      29.77R
SO SIOUX CITY  CLOUDY    74  67  78 S3        29.78R
TEKAMAH        CLOUDY    73  69  87 CALM      29.79R
COLUMBUS       CLOUDY    55 N/A N/A SW9       29.80R
ALBION         MOSUNNY   71  64  81 CALM      29.81R
OMAHA EPPLEY   LGT RAIN  76  68  76 S12       29.79F
OFFUTT AFB     SHOWER    74  74  99 S14       29.75F
MILLARD        LGT RAIN  74  68  81 CALM      29.78F
LINCOLN        TSTM      72  68  87 SW8       29.85R
NEBRASKA CITY  CLOUDY    74  68  80 SW6       29.87S
BEATRICE       CLOUDY    74  69  81 SE5       29.86F
FALLS CITY     CLOUDY    79  69  71 NW6       29.87R

...NORTHERN KANSAS...

CITY           SKY/WX    TMP DP  RH WIND       PRES   REMARKS
GOODLAND       PTCLDY    65  58  78 NW6       29.93R
HILL CITY      MOSUNNY   74  67  78 SW5       29.84R
NORTON         SUNNY     70  63  78 N9        29.84S
PHILLIPSBURG   RAIN      75  68  78 CALM      29.83R
SMITH CENTER   LGT RAIN  72  66  83 E9        29.85R
BELOIT         SUNNY     79  64  61 S8        29.82S
HAYS           MOSUNNY   79  63  57 S14       29.85R
RUSSELL        MOSUNNY   77  61  57 S15       29.83R
CONCORDIA      PTSUNNY   76  66  71 S15       29.84R
SALINA         SUNNY     79  66  64 S16G25    29.85R
TOPEKA         SUNNY     80  71  74 S15G24    29.88R



USA.gov is the U.S. government's official web portal to all federal, state and local government web resources and services.